Location: *
(50.8512°N, 5.6907°E)
Time: 22:39:44
(UTC+00:00)

IGS 5A - Pass Details

Date: 09 April 2020
Orbit: 585 x 587 km, 97.6° (Epoch: 01 June)

Event Time Altitude Azimuth Distance (km) Brightness Sun altitude
Exits shadow 20:20:46 37° 124° (SE) 927 3.9 -17.4°
Maximum altitude 20:22:04 52° 71° (ENE) 732 3.7 -17.5°
Drops below altitude 10° 20:26:07 10° 355° (N) 1,922 6.7 -18.0°
Sets 20:28:19 0° 351° (N) 2,828 7.7 -18.3°
